• Join FlightAware (Why Join?)
  • Login
  • US Flag 
02:40PM EST


 

Airport Tracker/Info


-or-


 

Live Flight TrackerFlight Track Log ✈ FLG3800 ✈ 18-Apr-2013 ✈ KAZO - KDTW

Flight Track Log - Related Links

Times and Time Zones

All times are in EDT time to prevent confusion due to time zone crossing. See the FLG3800 flight status page for this flight to view local times or setup timezone preferences in your user account.

Time Position Orientation Groundspeed Altitude Reporting Facility
EDT Latitude Longitude Course Direction KTS MPH feet Rate Location/Type
08:09AM 42.2036 -85.5275 106° East 147 169 2,500  Level Chicago Center
08:10AM 42.1869 -85.4356 104° East 233 268 4,000 1,920 Climbing Chicago Center
08:11AM 42.1661 -85.3294 105° East 284 327 6,600 2,520 Climbing Cleveland Center
08:12AM 42.1478 -85.2161 102° East 284 327 9,300 2,100 Climbing Cleveland Center
08:13AM 42.1366 -85.1092 106° East  Level FlightAware Approximate
08:13AM 42.1236 -85.0911 105° East 297 342 10,900  Level Cleveland Center
08:14AM 42.1175 -85.0203 106° East  Level FlightAware Approximate
08:14AM 42.0997 -84.9550 103° East 334 384 11,000  Level Cleveland Center
08:15AM 42.0672 -84.8183 108° East 362 417 11,000  Level Cleveland Center
08:16AM 42.0283 -84.6900 112° Southeast 369 425 11,000  Level Cleveland Center
08:17AM 41.9869 -84.5589 113° Southeast 374 430 11,000  Level Cleveland Center
08:18AM 41.9475 -84.4278 112° Southeast 379 436 11,000  Level Cleveland Center
08:19AM 41.9264 -84.3764 119° Southeast 375 432 11,000  Level Cleveland Center
08:19AM 41.9081 -84.3000 108° East 379 436 11,000  Level Cleveland Center
08:20AM 41.8661 -84.1775 115° Southeast 381 438 11,000  Level Cleveland Center
08:21AM 41.8347 -84.0475 108° East 379 436 11,000  Level Cleveland Center
08:22AM 41.8950 -83.9139 59° Northeast 362 417 11,000  Level Cleveland Center
08:23AM 41.9836 -83.7958 45° Northeast 426 490 11,000  Level Cleveland Center
08:24AM 42.0956 -83.6669 40° Northeast 426 490 11,000  Level Cleveland Center
08:25AM 42.1561 -83.5942 42° Northeast 405 466 11,000  Level Cleveland Center
08:25AM 42.1903 -83.5622 35° Northeast 346 398 11,000  Level Cleveland Center
08:26AM 42.2247 -83.5133 46° Northeast 383 441 11,000 -660 Level Cleveland Center
08:27AM 42.2669 -83.4931 20° North 301 346 10,300 -1,320 Descending Cleveland Center
08:27AM 42.3050 -83.4694 25° Northeast 313 360 9,700 -1,200 Descending Cleveland Center
08:28AM 42.3811 -83.4308 21° North 288 331 8,400 -1,560 Descending Cleveland Center
08:29AM 42.4703 -83.3700 27° Northeast 277 319 6,400 -1,860 Descending Cleveland Center
08:30AM 42.4575 -83.2878 102° East 213 245 4,300 -1,500 Descending Cleveland Center
08:31AM 42.3975 -83.2656 165° South 205 236 3,300 -660 Descending Cleveland Center
08:33AM 42.3494 -83.2719 186° South 150 173 3,000 -240 Descending Cleveland Center
08:33AM 42.3217 -83.2989 216° Southwest 146 168 2,900 -180 Descending Cleveland Center